Location: Ernez
(36.4595°N, 29.8755°E)
Time: 09:09:24
(UTC+00:00)

AQUARIUS - Pass Details

Date: 13 November 2025
Orbit: 634 x 636 km, 98.0° (Epoch: 05 December)

Event Time Altitude Azimuth Distance (km) Brightness Sun altitude
Rises 15:47:44 0° 164° (SSE) 2,919 7.5 -11.2°
Reaches altitude 10° 15:49:55 10° 163° (SSE) 2,014 6.7 -11.7°
Maximum altitude 15:54:19 81° 76° (ENE) 648 4.0 -12.5°
Drops below altitude 10° 15:58:44 10° 350° (N) 2,027 6.7 -13.4°
Sets 16:00:56 0° 349° (N) 2,939 7.5 -13.8°
